Pratica di Mare, Italy

7:31 AM CET on February 28, 2017 (GMT +0100)
Pratica Di Mare Mil

Weather History for LIRE - November, 2013

Change the Weather History Date:

Monday, November 4, 2013

  Actual Average Record
Temperature  
Mean Temperature 68 °F -  
Max Temperature 71 °F 62 °F 73 °F (2000)
Min Temperature 64 °F 46 °F 37 °F (2006)
Cooling Degree Days 2    
Growing Degree Days 18 (Base 50)    
Moisture  
Dew Point 58 °F    
Average Humidity 71    
Maximum Humidity 88    
Minimum Humidity 45    
Precipitation  
Precipitation 0.12 in 0.15 in - ()
Sea Level Pressure  
Sea Level Pressure 29.75 in    
Wind  
Wind Speed 10 mph ()    
Max Wind Speed 25 mph    
Max Gust Speed -    
Visibility 6.9 miles    
Events Rain , Thunderstorm    
Averages and records for this station are not official NWS values.
T = Trace of Precipitation, MM = Missing Value Source: Averaged Metar Reports

Daily Weather History Graph

Daily Weather History Graph

Search for Another Location

Airport or City:

Trip Planner

Search our weather history database for the weather conditions in past years. The results will help you decide how hot, cold, wet, or windy it might be!

Date:

Astronomy

Nov. 04, 2013 Rise Set
Actual Time 6:45 AM CET 5:01 PM CET
Civil Twilight 6:16 AM CET 5:30 PM CET
Nautical Twilight 5:43 AM CET 6:03 PM CET
Astronomical Twilight 5:11 AM CET 6:35 PM CET
Moon 7:38 AM CET (11/4) 5:50 PM CET (11/4)
Length of Visible Light 11h 13m
Length of Day
10h 15m
New Moon, 1% of the Moon is Illuminated
Nov 4
New Moon
Nov 10
First Quarter
Nov 17
Full
Nov 25
Last Quarter
Dec 3
New

Hourly Weather History & Observations

Time (CET) Temp. Dew Point Humidity Pressure Visibility Wind Dir Wind Speed Gust Speed Precip Events Conditions
12:55 AM 66.2 °F 62.6 °F 88% 29.95 in 6.2 mi WSW 8.1 mph - N/A   Scattered Clouds
1:00 AM 67 °F 63 °F 81% 29.95 in 9 mi WSW 8.1 mph - -   Partly Cloudy
1:55 AM 66.2 °F 62.6 °F 88% 29.92 in 6.2 mi SW 8.1 mph - N/A   Scattered Clouds
2:55 AM 66.2 °F 60.8 °F 83% 29.92 in 6.2 mi SW 8.1 mph - N/A   Scattered Clouds
3:55 AM 66.2 °F 59.0 °F 78% 29.89 in 6.2 mi SSW 8.1 mph - N/A   Scattered Clouds
4:00 AM 65 °F 59 °F 76% 29.91 in 9 mi SSW 8.1 mph - -   Partly Cloudy
4:55 AM 64.4 °F 57.2 °F 77% 29.89 in 6.2 mi SSW 9.2 mph - N/A   Partly Cloudy
5:55 AM 64.4 °F 53.6 °F 68% 29.89 in 6.2 mi SW 10.4 mph - N/A   Partly Cloudy
6:55 AM 64.4 °F 53.6 °F 68% 29.86 in 6.2 mi SW 9.2 mph - N/A   Partly Cloudy
7:00 AM 65 °F 54 °F 58% 29.88 in 12 mi SW 9.2 mph - -   Scattered Clouds
7:55 AM 66.2 °F 53.6 °F 64% 29.89 in 6.2 mi SW 9.2 mph - N/A   Mostly Cloudy
8:55 AM 69.8 °F 53.6 °F 56% 29.86 in 6.2 mi SW 11.5 mph - N/A   Scattered Clouds
9:55 AM 69.8 °F 51.8 °F 53% 29.86 in 6.2 mi SW 11.5 mph - N/A   Scattered Clouds
10:00 AM 69 °F 52 °F 45% 29.87 in 16 mi SW 11.5 mph - -   Partly Cloudy
10:55 AM 69.8 °F 55.4 °F 60% 29.83 in 6.2 mi SW 10.4 mph - N/A   Scattered Clouds
11:55 AM 71.6 °F 55.4 °F 57% 29.80 in 6.2 mi SW 10.4 mph - N/A   Scattered Clouds
12:55 PM 69.8 °F 57.2 °F 64% 29.80 in 6.2 mi SW 8.1 mph - N/A   Scattered Clouds
1:00 PM 71 °F 56 °F 50% 29.80 in 7 mi SW 8.1 mph - -   Partly Cloudy
1:55 PM 71.6 °F 53.6 °F 53% 29.74 in 6.2 mi SSW 6.9 mph - N/A   Scattered Clouds
2:55 PM 69.8 °F 55.4 °F 60% 29.71 in 6.2 mi South 9.2 mph - N/A   Scattered Clouds
3:55 PM 68.0 °F 55.4 °F 64% 29.71 in 6.2 mi South 10.4 mph - N/A   Scattered Clouds
4:00 PM 68 °F 55 °F 55% 29.71 in 7 mi South 10.4 mph - -   Partly Cloudy
4:55 PM 66.2 °F 57.2 °F 73% 29.68 in 6.2 mi ESE 10.4 mph - N/A   Scattered Clouds
5:55 PM 66.2 °F 59.0 °F 78% 29.65 in 6.2 mi SE 10.4 mph - N/A   Scattered Clouds
6:11 PM 66.2 °F 59.0 °F 78% 29.65 in 6.2 mi ESE 10.4 mph - N/A Thunderstorm Scattered Clouds
6:55 PM 66.2 °F 60.8 °F 83% 29.62 in 6.2 mi SE 9.2 mph - N/A Thunderstorm Thunderstorm
7:00 PM 66 °F 61 °F 80% 29.63 in 7 mi SE 9.2 mph - - Rain , Thunderstorm Thunderstorms and Rain
7:30 PM 64.4 °F 60.8 °F 88% 29.59 in 6.2 mi SE 10.4 mph - N/A Thunderstorm Scattered Clouds
7:55 PM 66.2 °F 60.8 °F 83% 29.59 in 6.2 mi South 18.4 mph - N/A Thunderstorm Scattered Clouds
8:55 PM 68.0 °F 59.0 °F 73% 29.56 in 6.2 mi South 18.4 mph - N/A Thunderstorm Scattered Clouds
9:55 PM 69.8 °F 64.4 °F 83% 29.53 in 6.2 mi South 25.3 mph - N/A Thunderstorm Scattered Clouds
10:00 PM 69 °F 64 °F 81% 29.54 in 6 mi South 25.3 mph - -   Partly Cloudy
10:22 PM 69.8 °F 64.4 °F 83% 29.50 in 6.2 mi South 23.0 mph - N/A Thunderstorm Thunderstorm
10:55 PM 69.8 °F 64.4 °F 83% 29.50 in 6.2 mi South 25.3 mph - N/A Thunderstorm Thunderstorm
11:55 PM 64.4 °F 59.0 °F 83% 29.47 in 6.2 mi West 16.1 mph - N/A Thunderstorm Thunderstorm